Other Surface Observations
Issued by NWS Jacksonville, FL

Home | Current Version | Previous Version | Text Only | Print | Product List | Glossary On
Versions: 1 2 3 4 5 6 7 8 9 10 11 12 13 14 15 16 17 18 19 20 21 22 23 24 25 26 27 28 29 30 31 32 33 34 35 36 37 38 39 40 41 42 43 44 45 46 47 48 49 50
000
SXUS52 KJAX 211410
OSOJAX
OTHER SURFACE OBSERVATIONS
NATIONAL WEATHER SERVICE JACKSONVILLE FL
1000 AM EDT TUE OCT 21 2014

FLZ020>025-030>033-035>038-040-211500-
...FLORIDA...

CITY           SKY/WX    TMP DP  RH WIND       PRES   REMARKS
CECIL FIELD    SUNNY     70  66  88 N6        30.00R
HERLONG FIELD  NOT AVBL
FERNANDINA BCH NOT AVBL
LAKE CITY      FAIR      68  63  83 NE7       30.01R
JUNIPER SPGS   NOT AVBL
BUNNELL        SUNNY     72  68  88 VRB5      29.99R
KEYSTONE HGTS    N/A     72  66  83 N6        30.00R
$$

GAZ132>136-149>154-162>166-211500-
...GEORGIA...

CITY           SKY/WX    TMP DP  RH WIND       PRES   REMARKS
JESUP          FAIR      73  61  64 NE5       30.01R
HOMERVILLE     FAIR      70  61  73 CALM      30.02R
SWAINSBORO     FAIR      64  57  77 MISG      30.02S
CORDELE        NOT AVBL
$$

PLEASE NOTE:  THESE OBSERVATIONS ARE NOT QUALITY CONTROLLED AND MAY
NOT BE AVAILABLE AT ALL TIMES.
$$


USA.gov is the U.S. government's official web portal to all federal, state and local government web resources and services.